Location: Unspecified
(0.0000°N, 0.0000°E)
Time: 07:51:08
(UTC+00:00)

TISAT 1 - Visible Passes

Search period start: 29 January 2022 00:00
Search period end: 08 February 2022 00:00
Orbit: 583 x 599 km, 98.2° (Epoch: 29 January)

Date Brightness Start Highest point End Pass type
(mag) Time Alt. Az. Time Alt. Az. Time Alt. Az.
29 Jan ? 18:32:47 10° NE 18:36:32 34° ESE 18:40:18 10° SSE visible
30 Jan ? 18:40:56 10° NNE 18:44:52 46° ESE 18:48:50 10° S visible
31 Jan ? 18:49:08 10° NNE 18:53:12 62° ESE 18:57:17 10° S visible
01 Feb ? 18:57:25 10° NNE 19:01:32 84° ESE 19:05:39 10° S visible
02 Feb ? 19:05:46 10° N 19:09:51 72° WNW 19:13:58 10° SSW visible
03 Feb ? 19:14:10 10° N 19:18:10 53° WNW 19:22:13 10° SSW visible
04 Feb ? 19:22:39 10° N 19:26:30 39° WNW 19:30:22 10° SSW visible
05 Feb ? 19:31:13 10° NNW 19:34:49 30° WNW 19:38:27 10° SW visible
06 Feb ? 19:39:53 10° NNW 19:43:08 23° WNW 19:46:25 10° SW visible
07 Feb ? 19:48:40 10° NW 19:51:28 18° WNW 19:54:15 10° WSW visible
